SHIJIAN-17 (SJ-17)

Last updated on Thu Nov 21 2024 00:02:43 GMT+0000 (Coordinated Universal Time)

1 41838U 16065A 24325.63677457 .00000066 00000+0 00000+0 0 9993 2 41838 4.2879 79.5255 0003336 199.8949 191.9748 1.00273138 29468
UTC large
Height (km)
Speed (km/s)
/
Latitude / Longitude
Inclination (degrees)
Orbital Period (minutes)
Azimuth
Elevation
Range (km)
Doppler Factor

Next 0 passes for location: London (51.5072 / 0.1276)

Sorry there are no passes over London.